#timestamp,LO_Frequency,Hit,StdDev 
1511859615.8,286047001.1,N
1511859635.6,286046998.4,N
1511859655.4,286046999.3,N
1511859675.3,286046996.7,N
1511859695.1,286046997.6,N
1511859696.0,286046997.6,N
1511859715.8,286046997.6,N
1511859735.6,286046991.9,N
1511859755.5,286046994.4,N
1511859775.3,286046992.0,N
1511859795.1,286046991.3,N
1511859815.9,286046991.2,N
1511859835.7,286046987.9,Y
1511859855.5,286046991.8,P
1511859875.4,286046994.1,N
1511859895.2,286046992.3,P
1511859915.0,286046990.7,Y
1511859916.0,286046990.7,P
1511859935.8,286046997.1,N
1511859955.6,286046996.3,N
1511859975.4,286046992.8,N
1511859995.3,286046992.6,Y
1511860015.1,286046997.6,P
1511860035.8,286046998.0,N
1511860055.7,286046995.1,N
1511860075.5,286046994.4,Y
1511860095.3,286046998.7,P
1511860115.2,286046995.2,P
1511860135.0,286046991.7,P
1511860135.9,286046991.7,Y
1511860155.8,286046996.8,P
1511860175.6,286046995.1,P
1511860195.4,286046996.7,P
1511860215.3,286046997.4,Y
1511860235.1,286047000.8,P
1511860236.0,286047000.8,N
1511860255.8,286046998.7,N
1511860275.6,286046998.9,N
1511860295.5,286046999.6,N
1511860315.3,286046998.6,N
1511860335.1,286047000.8,N
1511860355.9,286046996.6,N
1511860375.7,286046999.5,N
1511860395.5,286046998.9,N
1511860415.4,286047002.3,N
1511860435.2,286047002.2,N
1511860455.0,286047004.0,N
1511860455.9,286047004.0,N
1511860475.8,286047002.3,N
1511860495.6,286047003.5,N
1511860515.4,286047007.5,Y
1511860535.3,286047009.9,P
1511860555.1,286047012.6,N
1511860556.0,286047012.6,N
1511860575.8,286047014.5,N
1511860595.7,286047014.6,N
1511860615.5,286047016.8,Y
1511860635.3,286047004.4,P
1511860655.2,286046999.8,N
1511860675.9,286047000.3,N
1511860695.7,286047000.5,N
1511860715.5,286046999.2,N
1511860735.4,286047000.7,N
1511860755.2,286047000.4,N
1511860775.0,286047000.2,N
1511860775.9,286047000.2,N
1511860795.8,286047004.4,N
1511860815.6,286047000.7,N
1511860835.4,286046996.6,N
1511860855.3,286046994.7,N
1511860875.1,286046991.9,N
1511860876.0,286046991.9,N
1511860895.8,286046992.8,N
1511860915.7,286046990.3,N
1511860935.5,286046991.4,N
1511860955.3,286046990.9,N
1511860975.2,286046989.1,N
1511860995.9,286046986.5,N
1511861015.7,286046990.0,N
1511861035.5,286046993.2,N
1511861055.4,286046992.2,N
1511861075.2,286046991.3,N
1511861095.0,286046992.5,N
1511861095.9,286046992.5,N
1511861115.8,286046988.5,N
1511861135.6,286046987.3,N
1511861155.4,286046984.0,N
1511861175.3,286046981.0,Y
1511861195.1,286046988.8,P
1511861215.8,286046992.3,N
1511861235.7,286046992.5,P
1511861255.5,286046994.5,N
1511861275.3,286046996.0,N
1511861295.2,286046996.1,N
1511861315.9,286046995.2,N
1511861335.7,286046999.1,N
1511861355.6,286046996.5,N
1511861375.4,286046997.5,N
1511861395.2,286046999.3,N
1511861415.1,286046999.4,N
1511861416.0,286046999.4,N
1511861435.8,286046998.8,N
1511861455.6,286046998.3,N
1511861475.4,286047001.9,N
1511861495.3,286047005.6,N
1511861515.1,286047005.5,N
1511861535.8,286047001.9,N
1511861555.7,286047002.5,N
1511861575.5,286046998.1,N
1511861595.3,286046996.6,N
1511861615.2,286046997.4,N
1511861635.9,286046992.4,N
1511861655.7,286046995.6,N
1511861675.6,286046994.6,N
1511861695.4,286046994.3,N
1511861715.2,286046990.8,N
1511861735.0,286046992.7,N
1511861736.0,286046992.7,N
1511861755.8,286046990.4,N
1511861775.6,286046992.6,N
1511861795.4,286046995.5,N
1511861815.3,286046999.5,N
1511861835.1,286047000.0,N
1511861855.8,286047001.0,N
1511861875.7,286046999.9,N
1511861895.5,286047000.8,N
1511861915.3,286047000.6,N
1511861935.2,286046999.0,N
1511861955.9,286046994.9,N
1511861975.7,286046996.4,N
1511861995.6,286046994.9,N
1511862015.4,286046997.0,N
1511862035.2,286046996.5,N
1511862055.1,286046999.6,N
1511862056.0,286046999.6,N
1511862075.8,286046993.7,N
1511862095.6,286046990.5,N
1511862115.5,286046990.8,N
1511862135.3,286046988.0,Y
1511862155.1,286046990.4,P
1511862175.9,286046987.4,P
1511862195.7,286046988.4,P
1511862215.5,286046985.3,Y
1511862235.4,286046993.5,P
1511862255.2,286046994.0,P
1511862275.0,286046994.5,P
1511862275.9,286046994.5,Y
1511862295.8,286046998.6,P
1511862315.6,286046998.4,N
1511862335.4,286046996.5,N
1511862355.3,286046996.6,N
1511862375.1,286047000.5,N
1511862376.0,286047000.5,N
1511862395.8,286047002.3,N
1511862415.6,286047002.7,N
1511862435.5,286047001.8,N
1511862455.3,286047003.3,N
1511862475.1,286047004.6,N
1511862495.9,286047001.8,N
1511862515.7,286046999.3,N
1511862535.5,286046999.3,N
1511862555.4,286046997.0,N
1511862575.2,286046998.9,N
1511862595.0,286047001.2,N
1511862595.9,286047001.2,N
1511862615.8,286047000.2,N
1511862635.6,286047002.1,N
1511862655.4,286047003.6,N
1511862675.3,286047005.5,N
1511862695.1,286047005.4,N
1511862696.0,286047005.4,N
1511862715.8,286047005.3,N
1511862735.6,286047008.0,N
1511862755.5,286047010.8,Y
1511862775.3,286047006.6,P
1511862795.1,286047005.4,N
1511862815.9,286047003.8,N
1511862835.7,286047005.4,N
1511862855.6,286047010.2,Y
1511862875.4,286047007.0,P
1511862895.2,286047008.6,P
1511862915.0,286047009.6,P
1511862916.0,286047009.6,Y
1511862935.8,286047003.9,P
1511862955.6,286047003.8,N
1511862975.4,286046996.6,N
1511862995.3,286046995.1,N
1511863015.1,286046993.8,N
1511863035.8,286046998.8,N
1511863055.7,286047001.5,N
1511863075.5,286047003.5,N
1511863095.3,286047001.9,N
1511863115.2,286046999.9,N
1511863135.9,286047000.9,N
1511863155.7,286046998.6,N
1511863175.6,286047002.7,N
1511863195.4,286046999.7,N
